User: anonymous   Login
Location: Newark
(48.9886°N, 1.2358°E)
Time: 22:33:36
(UTC+00:00)
Language:

deb Explorer IX - Orbit

View from above orbital plane
View from above orbital plane
View from above satellite
View from above satellite

Ground track
Ground track

The orbit data is extracted from the following two-line orbital elements,

1    85U 61004C   19321.53284968 +.00001152 +00000-0 +27076-3 0  9999
2    85 038.7725 026.5478 0387809 161.0460 200.5174 14.19950479900795
Epoch (UTC): 17 November 2019 12:47:18
Eccentricity: 0.0387809
inclination: 38.7725°
perigee height: 546 km
apogee height: 1105 km
right ascension of ascending node: 26.5478°
argument of perigee: 161.0460°
revolutions per day: 14.19950479
mean anomaly at epoch: 200.5174°
orbit number at epoch: 90079

The dashed part of the orbit path shows where the satellite is in the earth's shadow,  

DLR